TimeEST,TemperatureF,Dew PointF,Humidity,Sea Level PressureIn,VisibilityMPH,Wind Direction,Wind SpeedMPH,Gust SpeedMPH,PrecipitationIn,Events,Conditions,WindDirDegrees,DateUTC
12:52 AM,34.0,19.0,54,30.32,10.0,NW,12.7,-,N/A,,Clear,320,2012-12-31 05:52:00
1:52 AM,33.1,19.0,56,30.33,10.0,NW,6.9,-,N/A,,Clear,320,2012-12-31 06:52:00
2:52 AM,32.0,19.0,59,30.35,10.0,WNW,5.8,-,N/A,,Clear,290,2012-12-31 07:52:00
3:52 AM,28.0,19.0,69,30.31,10.0,SW,4.6,-,N/A,,Clear,220,2012-12-31 08:52:00
4:52 AM,28.0,19.9,72,30.32,10.0,SSW,4.6,-,N/A,,Clear,210,2012-12-31 09:52:00
5:12 AM,26.6,19.4,74,30.31,10.0,SW,4.6,-,N/A,,Scattered Clouds,220,2012-12-31 10:12:00
5:52 AM,26.1,19.9,78,30.30,10.0,Calm,Calm,-,N/A,,Partly Cloudy,0,2012-12-31 10:52:00
6:52 AM,28.0,19.0,69,30.30,10.0,South,3.5,-,N/A,,Scattered Clouds,170,2012-12-31 11:52:00
7:52 AM,30.0,21.0,69,30.29,10.0,South,3.5,-,N/A,,Scattered Clouds,180,2012-12-31 12:52:00
8:52 AM,33.1,21.0,61,30.28,10.0,SSW,4.6,-,N/A,,Scattered Clouds,200,2012-12-31 13:52:00
9:52 AM,36.0,21.0,55,30.28,10.0,SSW,8.1,-,N/A,,Scattered Clouds,210,2012-12-31 14:52:00
10:52 AM,39.0,21.0,49,30.26,10.0,SSW,10.4,-,N/A,,Scattered Clouds,210,2012-12-31 15:52:00
11:52 AM,41.0,21.0,45,30.22,10.0,SSW,6.9,-,N/A,,Scattered Clouds,200,2012-12-31 16:52:00
12:52 PM,42.1,19.9,41,30.18,10.0,SW,9.2,-,N/A,,Mostly Cloudy,220,2012-12-31 17:52:00
1:52 PM,45.0,21.0,39,30.14,10.0,SW,9.2,-,N/A,,Mostly Cloudy,230,2012-12-31 18:52:00
2:52 PM,43.0,21.0,42,30.13,10.0,SW,9.2,-,N/A,,Mostly Cloudy,230,2012-12-31 19:52:00
3:52 PM,43.0,21.9,43,30.13,10.0,West,4.6,-,N/A,,Overcast,260,2012-12-31 20:52:00
4:52 PM,43.0,21.9,43,30.12,10.0,Calm,Calm,-,N/A,,Overcast,0,2012-12-31 21:52:00
5:52 PM,42.1,25.0,51,30.11,10.0,Calm,Calm,-,N/A,,Overcast,0,2012-12-31 22:52:00
6:52 PM,43.0,23.0,45,30.10,10.0,SSW,9.2,-,N/A,,Overcast,200,2012-12-31 23:52:00
7:52 PM,43.0,24.1,47,30.05,10.0,South,10.4,18.4,N/A,,Overcast,190,2013-01-01 00:52:00
8:52 PM,44.1,24.1,45,30.04,10.0,SSW,9.2,-,N/A,,Mostly Cloudy,210,2013-01-01 01:52:00
9:52 PM,44.1,24.1,45,30.05,10.0,SW,10.4,-,N/A,,Mostly Cloudy,220,2013-01-01 02:52:00
10:52 PM,45.0,23.0,42,30.04,10.0,SW,11.5,-,N/A,,Mostly Cloudy,220,2013-01-01 03:52:00
11:52 PM,45.0,21.9,40,30.01,10.0,SW,10.4,-,N/A,,Clear,220,2013-01-01 04:52:00